When you browse on this site, cookies collect data to enhance your experience and personalize the content and advertising you see.
Visit our Privacy Policy to learn more. By continuing to use the site, you agree to this use of cookies and data.
  • In Hungary
  • List of Countries
  • For 7 days
  • Water Temperature
  • Satellite Maps
  • Weather Map
  • News
  • Weather Widgets
  • user-avatar
    Login

    Hourly Weather Olkusz

    Today, 18 February, Monday

    Time Temperature Precipitation Wind Pressure Humidity
    00:00 +4°C° 0 mm 1 mps 734 mmHg 77%
    01:00 +4°C° 0 mm 1 mps 734 mmHg 78%
    02:00 +3°C° 0 mm 1 mps 734 mmHg 77%
    03:00 +3°C° 0 mm 1 mps 734 mmHg 75%
    04:00 +3°C° 0 mm 1 mps 734 mmHg 74%
    05:00 +3°C° 0 mm 1 mps 733 mmHg 72%
    06:00 +3°C° 0 mm 1 mps 733 mmHg 70%
    07:00 +3°C° 0 mm 1 mps 733 mmHg 68%
    08:00 +4°C° 0 mm 1 mps 734 mmHg 62%
    09:00 +6°C° 0 mm 1 mps 734 mmHg 56%
    10:00 +8°C° 0 mm 1 mps 734 mmHg 50%
    11:00 +9°C° 0 mm 1 mps 734 mmHg 47%
    12:00 +10°C° 0 mm 1 mps 733 mmHg 44%
    13:00 +10°C° 0 mm 2 mps 733 mmHg 42%
    14:00 +11°C° 0 mm 1 mps 733 mmHg 44%
    15:00 +11°C° 0 mm 1 mps 732 mmHg 47%
    16:00 +10°C° 0 mm 1 mps 732 mmHg 50%
    17:00 +9°C° 0 mm 1 mps 732 mmHg 55%
    18:00 +8°C° 0 mm 1 mps 732 mmHg 60%
    19:00 +7°C° 0 mm 1 mps 732 mmHg 65%
    20:00 +6°C° 0 mm 1 mps 732 mmHg 69%
    21:00 +6°C° 0 mm 1 mps 732 mmHg 72%
    22:00 +4°C° 0 mm 2 mps 731 mmHg 76%
    23:00 +4°C° 0 mm 2 mps 731 mmHg 76%

    Tomorrow, 19 February, Tuesday

    Time Temperature Precipitation Wind Pressure Humidity
    00:00 +3°C° 0 mm 2 mps 731 mmHg 76%
    01:00 +3°C° 0 mm 2 mps 731 mmHg 76%
    02:00 +2°C° 0 mm 2 mps 731 mmHg 74%
    03:00 +2°C° 0 mm 2 mps 730 mmHg 72%
    04:00 +2°C° 0 mm 2 mps 730 mmHg 71%
    05:00 +2°C° 0 mm 2 mps 730 mmHg 71%
    06:00 +2°C° 0 mm 2 mps 730 mmHg 71%
    07:00 +1°C° 0 mm 2 mps 730 mmHg 72%
    08:00 +3°C° 0 mm 2 mps 730 mmHg 66%
    09:00 +4°C° 0 mm 3 mps 730 mmHg 61%
    10:00 +7°C° 0 mm 3 mps 730 mmHg 55%
    11:00 +7°C° 0 mm 4 mps 729 mmHg 53%
    12:00 +8°C° 0 mm 5 mps 729 mmHg 51%
    13:00 +9°C° 0 mm 5 mps 729 mmHg 50%
    14:00 +8°C° 0 mm 5 mps 729 mmHg 53%
    15:00 +8°C° 0 mm 5 mps 728 mmHg 56%
    16:00 +8°C° 0 mm 4 mps 728 mmHg 58%
    17:00 +6°C° 0 mm 4 mps 728 mmHg 64%
    18:00 +5°C° 0 mm 4 mps 728 mmHg 69%
    19:00 +4°C° 0 mm 4 mps 728 mmHg 75%
    20:00 +4°C° 0 mm 4 mps 729 mmHg 76%
    21:00 +3°C° 0 mm 4 mps 729 mmHg 77%
    22:00 +3°C° 0 mm 4 mps 729 mmHg 79%
    23:00 +3°C° 0.4 mm 4 mps 729 mmHg 82%

    Day after tomorrow, 20 February, Wednesday

    Time Temperature Precipitation Wind Pressure Humidity
    00:00 +3°C° 0.4 mm 4 mps 729 mmHg 85%
    01:00 +3°C° 0.4 mm 4 mps 729 mmHg 88%
    02:00 +3°C° 0.2 mm 4 mps 729 mmHg 90%
    03:00 +3°C° 0.2 mm 4 mps 729 mmHg 92%
    04:00 +1°C° 0.2 mm 4 mps 729 mmHg 94%
    05:00 +1°C° 0 mm 4 mps 730 mmHg 93%
    06:00 +1°C° 0 mm 4 mps 730 mmHg 92%
    07:00 +1°C° 0 mm 4 mps 731 mmHg 91%
    08:00 +1°C° 0 mm 4 mps 731 mmHg 86%
    09:00 +2°C° 0 mm 5 mps 731 mmHg 81%
    10:00 +3°C° 0 mm 5 mps 731 mmHg 75%
    11:00 +3°C° 0 mm 5 mps 731 mmHg 73%
    12:00 +5°C° 0 mm 5 mps 731 mmHg 71%
    13:00 +5°C° 0 mm 5 mps 732 mmHg 69%
    14:00 +5°C° 0 mm 5 mps 732 mmHg 66%
    15:00 +5°C° 0 mm 5 mps 732 mmHg 64%
    16:00 +5°C° 0 mm 4 mps 732 mmHg 61%
    17:00 +5°C° 0 mm 4 mps 732 mmHg 65%
    18:00 +5°C° 0 mm 4 mps 732 mmHg 68%
    19:00 +4°C° 0 mm 3 mps 733 mmHg 71%
    20:00 +4°C° 0 mm 3 mps 733 mmHg 73%
    21:00 +4°C° 0 mm 3 mps 733 mmHg 76%
    22:00 +4°C° 0 mm 3 mps 733 mmHg 78%
    23:00 +3°C° 0 mm 3 mps 733 mmHg 79%

    21 February, Thursday

    Time Temperature Precipitation Wind Pressure Humidity
    00:00 +3°C° 0 mm 3 mps 733 mmHg 81%
    01:00 +3°C° 0 mm 3 mps 734 mmHg 82%
    02:00 +2°C° 0 mm 3 mps 733 mmHg 83%
    03:00 +2°C° 0 mm 3 mps 733 mmHg 85%
    04:00 +1°C° 0 mm 3 mps 733 mmHg 86%
    05:00 +1°C° 0 mm 3 mps 733 mmHg 86%
    06:00 +1°C° 0 mm 3 mps 733 mmHg 86%
    07:00 +1°C° 0 mm 3 mps 734 mmHg 86%
    08:00 +2°C° 0.3 mm 3 mps 734 mmHg 84%
    09:00 +1°C° 0.3 mm 4 mps 734 mmHg 81%
    10:00 +3°C° 0.3 mm 4 mps 734 mmHg 79%
    11:00 +3°C° 0.2 mm 4 mps 734 mmHg 77%
    12:00 +4°C° 0.2 mm 4 mps 733 mmHg 76%
    13:00 +5°C° 0.2 mm 5 mps 733 mmHg 75%
    14:00 +4°C° 0.2 mm 4 mps 733 mmHg 77%
    15:00 +4°C° 0.2 mm 4 mps 733 mmHg 80%
    16:00 +4°C° 0.2 mm 4 mps 733 mmHg 82%
    17:00 +4°C° 0.2 mm 4 mps 733 mmHg 84%
    18:00 +4°C° 0.2 mm 3 mps 734 mmHg 86%
    19:00 +4°C° 0.2 mm 3 mps 734 mmHg 88%
    20:00 +4°C° 0.3 mm 3 mps 734 mmHg 90%
    21:00 +3°C° 0.3 mm 3 mps 734 mmHg 92%
    22:00 +3°C° 0.3 mm 3 mps 735 mmHg 93%
    23:00 +3°C° 0.1 mm 3 mps 735 mmHg 94%

    22 February, Friday

    Time Temperature Precipitation Wind Pressure Humidity
    00:00 +4°C° 0.1 mm 2 mps 735 mmHg 95%
    01:00 +4°C° 0.1 mm 2 mps 735 mmHg 96%
    02:00 +4°C° 0 mm 2 mps 736 mmHg 96%
    03:00 +4°C° 0 mm 2 mps 736 mmHg 97%
    04:00 +4°C° 0 mm 2 mps 736 mmHg 97%
    05:00 +4°C° 0 mm 2 mps 737 mmHg 97%
    06:00 +4°C° 0 mm 2 mps 737 mmHg 97%
    07:00 +4°C° 0 mm 2 mps 738 mmHg 97%
    08:00 +4°C° 0.1 mm 2 mps 739 mmHg 96%
    09:00 +5°C° 0.1 mm 2 mps 739 mmHg 94%
    10:00 +4°C° 0.1 mm 3 mps 740 mmHg 93%
    11:00 +4°C° 0 mm 3 mps 740 mmHg 89%
    12:00 +4°C° 0 mm 3 mps 740 mmHg 85%
    13:00 +5°C° 0 mm 4 mps 741 mmHg 82%
    14:00 +5°C° 0 mm 3 mps 741 mmHg 79%
    15:00 +4°C° 0 mm 3 mps 741 mmHg 76%
    16:00 +4°C° 0 mm 3 mps 742 mmHg 74%
    17:00 +3°C° 0 mm 3 mps 742 mmHg 71%
    18:00 +2°C° 0 mm 3 mps 743 mmHg 68%
    19:00 +2°C° 0 mm 2 mps 743 mmHg 65%
    20:00 +1°C° 0 mm 2 mps 744 mmHg 63%
    21:00 +1°C° 0 mm 2 mps 744 mmHg 62%
    22:00 -1°C° 0 mm 2 mps 744 mmHg 60%
    23:00 -1°C° 0 mm 2 mps 745 mmHg 60%

    23 February, Saturday

    Time Temperature Precipitation Wind Pressure Humidity
    00:00 +1°C° 0 mm 1 mps 745 mmHg 61%
    01:00 0°C° 0 mm 1 mps 745 mmHg 62%
    02:00 0°C° 0 mm 1 mps 745 mmHg 61%
    03:00 0°C° 0 mm 1 mps 745 mmHg 60%
    04:00 0°C° 0 mm 1 mps 745 mmHg 60%
    05:00 0°C° 0 mm 1 mps 745 mmHg 59%
    06:00 0°C° 0 mm 1 mps 745 mmHg 58%
    07:00 0°C° 0 mm 1 mps 746 mmHg 57%
    08:00 +1°C° 0 mm 1 mps 746 mmHg 51%
    09:00 +1°C° 0 mm 0 mps 746 mmHg 45%
    10:00 +3°C° 0 mm 0 mps 746 mmHg 39%
    11:00 +3°C° 0 mm 0 mps 746 mmHg 37%
    12:00 +5°C° 0 mm 1 mps 745 mmHg 35%
    13:00 +6°C° 0 mm 1 mps 745 mmHg 34%
    14:00 +6°C° 0 mm 1 mps 745 mmHg 36%
    15:00 +6°C° 0 mm 1 mps 744 mmHg 39%
    16:00 +5°C° 0 mm 2 mps 744 mmHg 42%
    17:00 +5°C° 0 mm 2 mps 744 mmHg 45%
    18:00 +4°C° 0 mm 2 mps 744 mmHg 49%
    19:00 +3°C° 0 mm 2 mps 744 mmHg 53%
    20:00 +3°C° 0 mm 2 mps 744 mmHg 57%
    21:00 +2°C° 0 mm 2 mps 743 mmHg 62%
    22:00 +2°C° 0 mm 2 mps 743 mmHg 66%
    23:00 +2°C° 0 mm 2 mps 743 mmHg 70%
    Show more